FW9069 Weather Reports


time (UTC)temp
F
wind
direction
speed
knots
gust
knots
rain 1hr
in
rain 24hr
in
rain mn
in
humidity
%
barometer
mb
20260904210330 57 189 0.9 9.6 0.11 0.44 0.22 93 1013.8
20260904204820 58 221 4.3 7.0 0.00 0.33 0.11 91 1013.5
20260904203332 59 172 6.1 9.6 0.00 0.40 0.11 89 1013.5
20260904201822 61 101 2.6 4.3 0.00 0.40 0.11 88 1013.2
20260904200329 60 347 1.7 6.1 0.00 0.40 0.11 92 1013.3
20260904194838 58 109 3.5 8.7 0.00 0.40 0.11 92 1013.3
20260904193349 58 15 2.6 8.7 0.00 0.40 0.11 93 1013.5
20260904191821 59 9 2.6 7.0 0.00 0.40 0.11 95 1013.4
20260904190333 58 11 4.3 7.8 0.00 0.40 0.11 96 1013.5
20260904184826 58 36 3.5 7.0 0.00 0.40 0.11 98 1013.5
20260904183334 57 341 1.7 5.2 0.00 0.41 0.11 97 1013.4
20260904181824 57 354 1.7 5.2 0.00 0.41 0.11 98 1013.3
20260904180354 57 330 1.7 3.5 0.00 0.41 0.11 98 1013.2
20260904174844 56 328 2.6 4.3 0.00 0.41 0.11 98 1013.1
20260904173335 56 329 2.6 3.5 0.00 0.51 0.11 98 1013.0
20260904171822 55 329 1.7 2.6 0.00 0.51 0.11 98 1012.9
20260904170332 55 332 1.7 4.3 0.00 0.51 0.11 98 1012.8
20260904164838 54 337 1.7 3.5 0.00 0.51 0.11 98 1012.7
20260904163325 55 342 0.0 2.6 0.00 0.51 0.11 98 1012.6
20260904161845 54 342 0.9 3.5 0.00 0.51 0.11 98 1012.6
20260904160354 54 345 1.7 3.5 0.00 0.51 0.11 98 1012.7
20260904154825 54 334 2.6 4.3 0.00 0.51 0.11 98 1012.5
20260904153333 53 337 0.9 3.5 0.01 0.51 0.11 98 1012.2
20260904151823 53 337 2.6 6.1 0.02 0.51 0.11 98 1012.3
20260904150329 53 333 1.7 3.5 0.03 0.51 0.11 98 1012.3
20260904144822 53 317 0.9 2.6 0.03 0.51 0.11 98 1012.2
20260904143331 53 318 0.9 3.5 0.02 0.52 0.10 98 1012.1
20260904141822 52 351 2.6 5.2 0.01 0.51 0.09 98 1011.9
20260904140330 52 332 0.9 2.6 0.00 0.50 0.08 98 1011.7
20260904134838 52 331 1.7 3.5 0.00 0.50 0.08 98 1011.4
20260904133349 52 321 0.9 2.6 0.01 0.56 0.08 97 1011.2
20260904131819 53 321 0.9 2.6 0.01 0.56 0.08 97 1011.0
20260904130327 52 321 0.9 3.5 0.01 0.56 0.08 97 1010.9
20260904124821 53 321 1.7 6.1 0.01 0.56 0.08 97 1010.9
20260904123332 53 344 0.9 1.7 0.00 0.55 0.07 97 1010.9
20260904121824 53 344 0.9 2.6 0.00 0.55 0.07 97 1010.9
20260904120354 52 344 0.9 2.6 0.00 0.55 0.07 97 1010.8
20260904114821 52 344 0.9 1.7 0.00 0.55 0.07 97 1010.7
20260904113333 53 344 0.0 1.7 0.00 0.55 0.07 97 1010.5
20260904111826 53 344 0.9 2.6 0.00 0.55 0.07 97 1010.4
20260904110335 53 344 0.0 0.9 0.00 0.55 0.07 97 1010.4
20260904104843 53 344 1.7 2.6 0.00 0.55 0.07 97 1010.3
20260904101820 53 349 1.7 2.6 0.00 0.55 0.07 97 1010.3
20260904100331 52 348 1.7 3.5 0.00 0.55 0.07 97 1010.2
20260904094822 53 17 3.5 4.3 0.01 0.55 0.07 97 1010.2
20260904093332 53 16 2.6 4.3 0.02 0.55 0.07 97 1010.3
20260904091824 53 15 3.5 7.0 0.04 0.55 0.07 97 1010.3
20260904090332 53 36 2.6 3.5 0.06 0.55 0.07 97 1010.4
20260904084822 53 31 1.7 4.3 0.06 0.54 0.06 97 1010.4
20260904083334 53 34 2.6 3.5 0.05 0.53 0.05 97 1010.3
20260904081823 53 90 1.7 2.6 0.03 0.51 0.03 97 1010.3
20260904080333 53 122 3.5 6.1 0.01 0.49 0.01 97 1010.3
20260904074827 53 127 3.5 5.2 0.00 0.48 0.00 97 1010.2
20260904073335 53 122 0.9 2.6 0.00 0.48 0.48 97 1010.2
20260904071827 53 125 1.7 4.3 0.00 0.48 0.48 97 1010.3
20260904070339 53 134 2.6 4.3 0.00 0.48 0.48 97 1010.1
20260904064824 53 117 0.9 2.6 0.00 0.48 0.48 97 1010.1
20260904063338 53 61 0.0 1.7 0.00 0.49 0.48 96 1010.1
20260904061829 53 61 0.9 2.6 0.00 0.49 0.48 96 1010.2
20260904060321 53 80 0.9 2.6 0.00 0.49 0.48 96 1010.2
20260904054834 53 116 0.9 2.6 0.00 0.49 0.48 96 1010.1
20260904053343 53 119 0.9 2.6 0.00 0.54 0.48 96 1010.2
20260904051855 53 80 0.0 5.2 0.00 0.54 0.48 96 1010.2
20260904050325 53 94 3.5 5.2 0.00 0.54 0.48 96 1010.3
20260904044836 53 121 2.6 7.0 0.00 0.54 0.48 96 1010.2
20260904043322 53 140 3.5 7.8 0.01 0.54 0.48 96 1010.3
20260904041834 53 102 3.5 4.3 0.01 0.54 0.48 96 1010.2
20260904040325 53 96 2.6 5.2 0.03 0.54 0.48 96 1010.2
20260904034837 53 115 2.6 7.0 0.03 0.54 0.48 96 1010.1
20260904033328 53 131 2.6 4.3 0.02 0.53 0.47 96 1010.0
20260904031819 54 137 3.5 5.2 0.03 0.53 0.47 96 1009.9
20260904030332 54 136 3.5 5.2 0.02 0.51 0.45 96 1010.0
20260904024821 54 102 2.6 10.4 0.04 0.51 0.45 96 1010.2
20260904023332 54 123 5.2 7.8 0.05 0.51 0.45 96 1010.0
20260904021844 54 141 5.2 8.7 0.05 0.50 0.44 95 1009.9
20260904020335 54 115 4.3 7.8 0.05 0.49 0.43 95 1010.0
20260904014823 54 131 3.5 7.0 0.03 0.47 0.41 94 1009.9
20260904013335 54 114 6.1 8.7 0.02 0.46 0.40 94 1010.0
20260904011828 55 129 2.6 9.6 0.01 0.45 0.39 93 1009.9
20260904010320 56 145 4.3 9.6 0.00 0.44 0.38 94 1010.0
20260904004830 57 67 4.3 8.7 0.00 0.44 0.38 95 1009.9
20260904003323 57 109 3.5 7.0 0.00 0.47 0.38 95 1009.9
20260904001832 57 125 3.5 7.8 0.00 0.47 0.38 95 1010.0
20260904000321 57 112 3.5 7.0 0.00 0.47 0.38 95 1010.1
20260903234833 57 111 3.5 7.8 0.01 0.47 0.38 96 1010.0
20260903233351 57 126 3.5 5.2 0.03 0.51 0.38 95 1010.0
20260903231822 56 165 1.7 7.0 0.03 0.51 0.38 96 1010.0
20260903230335 56 123 2.6 4.3 0.03 0.51 0.38 97 1010.0
20260903224825 54 166 0.9 7.0 0.03 0.50 0.37 95 1010.2
20260903223356 55 179 2.6 6.1 0.01 0.60 0.35 94 1010.3
20260903221825 55 185 2.6 7.0 0.02 0.60 0.35 95 1010.4
20260903220339 55 206 2.6 5.2 0.05 0.60 0.35 97 1010.4
20260903214833 53 184 2.6 7.8 0.06 0.59 0.34 96 1010.4
20260903213321 53 131 0.9 7.8 0.08 0.64 0.34 96 1010.7
20260903211854 52 179 0.9 7.0 0.10 0.63 0.33 96 1010.5